Wahoo, NE

4:28 PM CDT on March 27, 2017 (GMT -0500)
Wahoo Municipal

Weather History for KAHQ - May, 2012

Change the Weather History Date:

Thursday, May 24, 2012

  Actual Average Record
Temperature  
Mean Temperature 64 °F -  
Max Temperature 71 °F 77 °F 99 °F (1967)
Min Temperature 56 °F 53 °F 43 °F (1992)
Degree Days  
Heating Degree Days 1    
Growing Degree Days 14 (Base 50)    
Moisture  
Dew Point 57 °F    
Average Humidity 80    
Maximum Humidity 94    
Minimum Humidity 60    
Precipitation  
Precipitation 0.03 in - - ()
Sea Level Pressure  
Sea Level Pressure 29.55 in    
Wind  
Wind Speed 15 mph (NNW)    
Max Wind Speed 29 mph    
Max Gust Speed 33 mph    
Visibility 10 miles    
Events Rain    
Averages and records for this station are not official NWS values.
T = Trace of Precipitation, MM = Missing Value Source: NWS Daily Summary

Daily Weather History Graph

Daily Weather History Graph

Search for Another Location

Airport or City:

Trip Planner

Search our weather history database for the weather conditions in past years. The results will help you decide how hot, cold, wet, or windy it might be!

Date:

Astronomy

May. 24, 2012 Rise Set
Actual Time 6:00 AM CDT 8:46 PM CDT
Civil Twilight 5:27 AM CDT 9:19 PM CDT
Nautical Twilight 4:46 AM CDT 10:00 PM CDT
Astronomical Twilight 4:00 AM CDT 10:47 PM CDT
Moon 9:01 AM CDT (5/24) 11:47 PM CDT (5/24)
Length of Visible Light 15h 51m
Length of Day
14h 46m
Waxing Crescent, 12% of the Moon is Illuminated
May 24
Waxing Crescent
May 28
First Quarter
Jun 4
Full
Jun 11
Last Quarter
Jun 19
New

Hourly Weather History & Observations

Time (CDT) Temp. Dew Point Humidity Pressure Visibility Wind Dir Wind Speed Gust Speed Precip Events Conditions
12:15 AM 67.1 °F 61.5 °F 82% 29.45 in 10.0 mi North 20.7 mph 24.2 mph N/A   Overcast
12:35 AM 65.8 °F 58.1 °F 76% 29.49 in 10.0 mi NNW 25.3 mph 32.2 mph N/A   Overcast
12:55 AM 62.4 °F 55.0 °F 77% 29.49 in 10.0 mi NNW 28.8 mph 33.4 mph N/A   Overcast
1:15 AM 61.7 °F 55.6 °F 80% 29.48 in 10.0 mi North 20.7 mph 27.6 mph N/A   Overcast
1:35 AM 61.2 °F 56.8 °F 86% 29.47 in 10.0 mi NNE 17.3 mph 24.2 mph N/A   Overcast
1:55 AM 60.8 °F 56.3 °F 85% 29.46 in 10.0 mi NNE 20.7 mph 29.9 mph N/A   Overcast
2:15 AM 60.3 °F 54.3 °F 81% 29.46 in 10.0 mi NNE 23.0 mph 28.8 mph N/A   Overcast
2:35 AM 59.9 °F 54.7 °F 83% 29.46 in 10.0 mi NNE 13.8 mph - N/A   Overcast
2:55 AM 59.9 °F 54.9 °F 83% 29.49 in 10.0 mi NNW 16.1 mph - N/A   Overcast
3:15 AM 59.0 °F 54.7 °F 86% 29.49 in 10.0 mi NNW 15.0 mph 23.0 mph N/A   Overcast
3:35 AM 58.3 °F 54.7 °F 88% 29.46 in 10.0 mi North 17.3 mph 23.0 mph N/A   Overcast
3:55 AM 59.7 °F 55.4 °F 86% 29.51 in 7.0 mi NNW 20.7 mph 25.3 mph N/A Rain Heavy Rain
4:15 AM 57.6 °F 55.8 °F 94% 29.47 in 7.0 mi North 17.3 mph 24.2 mph 0.02 in Rain Light Rain
4:35 AM 57.6 °F 55.8 °F 94% 29.44 in 10.0 mi North 15.0 mph - 0.02 in   Overcast
4:55 AM 58.1 °F 56.3 °F 94% 29.45 in 10.0 mi NNE 15.0 mph - 0.02 in   Overcast
5:15 AM 58.5 °F 56.3 °F 93% 29.43 in 10.0 mi NNE 15.0 mph 20.7 mph N/A   Overcast
5:35 AM 58.6 °F 56.3 °F 92% 29.42 in 10.0 mi NNE 10.4 mph - N/A   Overcast
5:55 AM 59.0 °F 56.5 °F 91% 29.42 in 10.0 mi NNE 10.4 mph - N/A   Overcast
6:15 AM 59.2 °F 56.8 °F 92% 29.46 in 10.0 mi NW 13.8 mph 17.3 mph N/A   Overcast
6:35 AM 58.5 °F 56.3 °F 93% 29.46 in 7.0 mi NNW 11.5 mph - N/A   Overcast
6:55 AM 58.3 °F 55.8 °F 91% 29.47 in 10.0 mi NW 16.1 mph 21.9 mph N/A Rain Light Rain
7:15 AM 57.7 °F 55.4 °F 92% 29.47 in 7.0 mi NNW 18.4 mph 24.2 mph 0.01 in Rain Rain
7:35 AM 57.4 °F 55.0 °F 92% 29.48 in 5.0 mi NNW 19.6 mph 25.3 mph 0.01 in   Light Drizzle
7:55 AM 57.4 °F 55.0 °F 92% 29.48 in 7.0 mi NNW 16.1 mph 19.6 mph 0.01 in   Overcast
8:15 AM 57.7 °F 55.0 °F 91% 29.48 in 10.0 mi NNW 13.8 mph - N/A   Overcast
8:35 AM 58.1 °F 55.4 °F 91% 29.47 in 10.0 mi NNW 17.3 mph - N/A Rain Rain
8:55 AM 58.1 °F 55.4 °F 91% 29.48 in 10.0 mi NNW 10.4 mph - N/A   Overcast
9:15 AM 58.6 °F 55.8 °F 90% 29.46 in 10.0 mi North 10.4 mph - N/A   Overcast
9:35 AM 60.6 °F 57.2 °F 88% 29.42 in 10.0 mi ENE 13.8 mph - N/A   Mostly Cloudy
9:55 AM 62.6 °F 58.1 °F 85% 29.39 in 10.0 mi ENE 16.1 mph 23.0 mph N/A   Clear
10:15 AM 64.2 °F 59.2 °F 84% 29.41 in 10.0 mi ENE 12.7 mph 19.6 mph N/A   Clear
10:35 AM 65.7 °F 60.3 °F 83% 29.43 in 10.0 mi East 10.4 mph 18.4 mph N/A   Clear
10:55 AM 66.2 °F 59.7 °F 80% 29.47 in 10.0 mi NW 5.8 mph - N/A   Mostly Cloudy
11:15 AM 65.8 °F 59.9 °F 81% 29.48 in 10.0 mi NNW 6.9 mph - N/A   Overcast
11:35 AM 65.5 °F 59.2 °F 80% 29.48 in 10.0 mi NW 11.5 mph - N/A   Overcast
11:55 AM 66.2 °F 59.2 °F 78% 29.49 in 10.0 mi NW 9.2 mph - N/A   Overcast
12:15 PM 66.9 °F 59.2 °F 76% 29.49 in 10.0 mi NW 10.4 mph - N/A   Overcast
12:35 PM 66.6 °F 59.4 °F 78% 29.50 in 10.0 mi NW 10.4 mph - N/A   Overcast
12:55 PM 66.2 °F 58.5 °F 76% 29.52 in 10.0 mi NW 12.7 mph - N/A   Overcast
1:15 PM 67.1 °F 58.6 °F 74% 29.53 in 10.0 mi NNW 10.4 mph - N/A   Overcast
1:35 PM 68.5 °F 59.0 °F 72% 29.53 in 10.0 mi NW 12.7 mph - N/A   Overcast
1:55 PM 68.0 °F 58.5 °F 71% 29.54 in 10.0 mi NNW 12.7 mph - N/A   Overcast
2:15 PM 68.2 °F 58.1 °F 70% 29.55 in 10.0 mi NW 12.7 mph - N/A   Overcast
2:35 PM 69.6 °F 58.3 °F 67% 29.55 in 10.0 mi NW 9.2 mph - N/A   Mostly Cloudy
2:55 PM 70.7 °F 58.5 °F 65% 29.55 in 10.0 mi NNW 12.7 mph 20.7 mph N/A   Mostly Cloudy
3:15 PM 69.8 °F 57.7 °F 65% 29.56 in 10.0 mi NW 12.7 mph 19.6 mph N/A   Mostly Cloudy
3:35 PM 69.6 °F 59.0 °F 69% 29.56 in 10.0 mi NNW 12.7 mph - N/A   Overcast
3:55 PM 70.3 °F 58.6 °F 66% 29.57 in 10.0 mi NNW 11.5 mph - N/A   Mostly Cloudy
4:15 PM 70.2 °F 57.9 °F 65% 29.58 in 10.0 mi NNW 12.7 mph - N/A   Mostly Cloudy
4:35 PM 70.9 °F 57.9 °F 63% 29.58 in 10.0 mi NW 8.1 mph - N/A   Mostly Cloudy
4:55 PM 69.6 °F 57.6 °F 65% 29.58 in 10.0 mi NNW 9.2 mph - N/A   Mostly Cloudy
5:15 PM 70.0 °F 57.7 °F 65% 29.59 in 10.0 mi NNE 9.2 mph - N/A   Scattered Clouds
5:35 PM 69.8 °F 57.2 °F 64% 29.59 in 10.0 mi North 8.1 mph - N/A   Clear
5:55 PM 70.3 °F 57.0 °F 63% 29.60 in 10.0 mi NNW 8.1 mph - N/A   Scattered Clouds
6:15 PM 70.9 °F 57.6 °F 63% 29.60 in 10.0 mi North 9.2 mph - N/A   Clear
6:35 PM 71.1 °F 56.5 °F 60% 29.62 in 10.0 mi NNW 8.1 mph - N/A   Clear
6:55 PM 69.1 °F 55.8 °F 62% 29.64 in 10.0 mi NNW 13.8 mph - N/A   Scattered Clouds
7:15 PM 68.0 °F 56.5 °F 67% 29.66 in 10.0 mi North 16.1 mph - N/A   Scattered Clouds
7:35 PM 67.3 °F 54.3 °F 63% 29.67 in 10.0 mi NW 9.2 mph - N/A Rain Light Rain
7:55 PM 66.2 °F 54.9 °F 67% 29.68 in 10.0 mi NW 5.8 mph - N/A   Mostly Cloudy
8:15 PM 65.1 °F 55.4 °F 71% 29.68 in 10.0 mi North 11.5 mph - N/A   Scattered Clouds
8:35 PM 63.5 °F 55.0 °F 74% 29.69 in 10.0 mi NNE 5.8 mph - N/A   Clear
8:55 PM 62.2 °F 54.7 °F 76% 29.70 in 10.0 mi North 5.8 mph - N/A   Clear
9:15 PM 61.2 °F 54.5 °F 79% 29.71 in 10.0 mi North 3.5 mph - N/A   Clear
9:35 PM 59.0 °F 54.7 °F 86% 29.73 in 10.0 mi Calm Calm - N/A   Clear
9:55 PM 59.2 °F 55.0 °F 86% 29.74 in 10.0 mi Calm Calm - N/A   Clear
10:15 PM 59.2 °F 54.7 °F 85% 29.75 in 10.0 mi Calm Calm - N/A   Clear
10:35 PM 58.6 °F 54.0 °F 84% 29.76 in 10.0 mi North 3.5 mph - N/A   Clear
10:55 PM 58.3 °F 53.8 °F 85% 29.78 in 10.0 mi Calm Calm - N/A   Clear
11:15 PM 57.0 °F 53.6 °F 88% 29.78 in 10.0 mi NNW 8.1 mph - N/A   Clear
11:35 PM 57.2 °F 53.4 °F 87% 29.78 in 10.0 mi North 6.9 mph - N/A   Clear
11:55 PM 56.5 °F 53.6 °F 90% 29.80 in 10.0 mi NNW 6.9 mph - N/A   Clear